Regional Weather Roundup
Issued by NWS Sioux Falls, SD

Home | Current Version | Previous Version | Graphics & Text | Print | Product List | Glossary On
Versions: 1 2 3 4 5 6 7 8 9 10 11 12 13 14 15 16 17 18 19 20 21 22 23 24 25 26 27 28 29 30 31 32 33 34 35 36 37 38 39 40 41 42 43 44 45 46 47 48 49 50
052
ASUS43 KFSD 250710
RWRFSD

WEATHER ROUNDUP FOR SE SOUTH DAKOTA/SW MINNESOTA/NW IOWA
NATIONAL WEATHER SERVICE SIOUX FALLS SD
200 AM CDT WED MAY 25 2016

NOTE: "FAIR" INDICATES FEW OR NO CLOUDS BELOW 12,000 FEET WITH NO
SIGNIFICANT WEATHER AND OR OBSTRUCTIONS TO VISIBILITY.


SDZ038>040-050-052>070-250800-
SOUTHEAST SOUTH DAKOTA

CITY           SKY/WX    TMP DP  RH WIND       PRES   REMARKS
BROOKINGS      CLOUDY    66  60  81 SE10      29.84S
CHAMBERLAIN    HVY RAIN  60  59  97 N25G33    29.76F
HURON          CLOUDY    69  62  78 SE9       29.76F THUNDER
MADISON        FAIR      66  66 100 SE8       29.84S
MITCHELL       CLOUDY    69  62  78 SE8       29.76F
SIOUX FALLS    CLOUDY    69  62  78 SE13      29.82F
WINNER         RAIN      58  55  90 NE10      29.81F FOG
YANKTON        CLOUDY    66  59  77 E7        29.78F
$$

MNZ071-072-080-081-089-090-097-098-250800-
SOUTHWEST MINNESOTA

CITY           SKY/WX    TMP DP  RH WIND       PRES   REMARKS
FAIRMONT       CLOUDY    64  52  63 E6        29.90F
JACKSON        CLOUDY    68  59  73 SE8       29.90F
LUVERNE        CLOUDY    64  59  82 SE7       29.85F
MARSHALL       CLOUDY    69  61  75 SE8       29.86F
MONTEVIDEO     CLOUDY    64  54  68 S9        29.88S
PIPESTONE      CLOUDY    64  61  88 SE5       29.86F
REDWOOD FALLS  CLOUDY    67  56  67 SE7       29.87S
TRACY          CLOUDY    68  61  77 S7        29.87F
WINDOM         CLOUDY    66  61  82 CALM      29.89F
WORTHINGTON    CLOUDY    68  62  81 S12       29.88F
$$

IAZ001>003-012>014-020>022-031-032-NEZ013-014-SDZ071-250800-
NORTHWEST IOWA

CITY           SKY/WX    TMP DP  RH WIND       PRES   REMARKS
CHEROKEE       CLOUDY    67  64  89 SE7       29.85F
DENISON        CLOUDY    68  63  83 SE7       29.83F
ESTHERVILLE    CLOUDY    62  59  90 SE8       29.89F
LE MARS        CLOUDY    68  63  83 SE9       29.83F
ORANGE CITY    CLOUDY    68  64  88 SE7       29.85F
SHELDON        CLOUDY    68  64  88 SE10      29.85F
SIOUX CITY     CLOUDY    69  62  78 SE10      29.81F
SPENCER        CLOUDY    66  61  84 SE9       29.88F
STORM LAKE     CLOUDY    66  63  88 SE8       29.88F
$$

ABBREVIATIONS USED IN REMARKS
   TC - TEMPERATURE IN CELSIUS
  WCI - WIND CHILL INDEX
   HX - HEAT INDEX
  VSB - VISIBILITY





USA.gov is the U.S. government's official web portal to all federal, state and local government web resources and services.